Louisville Bowman, KY

9:27 AM EDT on April 26, 2017 (GMT -0400)
Bowman

Weather History for KLOU - December, 2010

Change the Weather History Date:

Monday, December 27, 2010

  Actual Average Record
Temperature  
Mean Temperature 25 °F 35 °F  
Max Temperature 30 °F 43 °F 70 °F (2008)
Min Temperature 19 °F 28 °F 9 °F (1950)
Degree Days  
Heating Degree Days 40 30  
Month to date heating degree days 976 742  
Since 1 July heating degree days 1650 1546  
Cooling Degree Days 0 0  
Month to date cooling degree days 0 0  
Year to date cooling degree days 1991 1444  
Moisture  
Dew Point 18 °F    
Average Humidity 76    
Maximum Humidity 88    
Minimum Humidity 63    
Precipitation  
Precipitation 0.00 in 0.12 in 2.10 in (2015)
Month to date precipitation 1.07 3.53  
Year to date precipitation 39.55 45.06  
Sea Level Pressure  
Sea Level Pressure 30.29 in    
Wind  
Wind Speed 7 mph (NW)    
Max Wind Speed 15 mph    
Max Gust Speed 21 mph    
Visibility 10 miles    
Events      
T = Trace of Precipitation, MM = Missing Value Source: NWS Daily Summary

Daily Weather History Graph

Daily Weather History Graph

Search for Another Location

Airport or City:

Trip Planner

Search our weather history database for the weather conditions in past years. The results will help you decide how hot, cold, wet, or windy it might be!

Date:

Astronomy

Dec. 27, 2010 Rise Set
Actual Time 7:58 AM EST 5:29 PM EST
Civil Twilight 7:28 AM EST 5:59 PM EST
Nautical Twilight 6:55 AM EST 6:32 PM EST
Astronomical Twilight 6:23 AM EST 7:04 PM EST
Moon No Moon Rise 11:53 AM EST (12/27)
Length of Visible Light 10h 30m
Length of Day
9h 31m
Waning Gibbous, 55% of the Moon is Illuminated
Dec 27
Waning Gibbous
Dec 27
Last Quarter
Jan 4
New
Jan 12
First Quarter
Jan 19
Full

Hourly Weather History & Observations

Time (EST) Temp. Windchill Dew Point Humidity Pressure Visibility Wind Dir Wind Speed Gust Speed Precip Events Conditions
12:20 AM 28.4 °F 19.1 °F 19.4 °F 69% 30.17 in 10.0 mi NNW 10.4 mph 16.1 mph N/A   Overcast
12:53 AM 28.9 °F 20.4 °F 19.0 °F 67% 30.18 in 10.0 mi NNW 9.2 mph - N/A   Overcast
1:07 AM 28.4 °F 21.2 °F 19.4 °F 69% 30.17 in 10.0 mi NNW 6.9 mph 18.4 mph N/A   Overcast
1:53 AM 28.0 °F 20.0 °F 19.0 °F 69% 30.19 in 10.0 mi NNW 8.1 mph 17.3 mph N/A   Overcast
2:53 AM 27.0 °F 15.6 °F 17.1 °F 66% 30.21 in 10.0 mi North 13.8 mph 18.4 mph N/A   Overcast
3:50 AM 24.8 °F 15.3 °F 15.8 °F 69% 30.22 in 10.0 mi NNW 9.2 mph 18.4 mph N/A   Scattered Clouds
3:53 AM 24.1 °F 13.1 °F 16.0 °F 71% 30.25 in 10.0 mi NNW 11.5 mph 17.3 mph N/A   Partly Cloudy
4:53 AM 23.0 °F 14.7 °F 15.1 °F 72% 30.26 in 10.0 mi NNW 6.9 mph - N/A   Clear
5:53 AM 21.9 °F 17.2 °F 15.1 °F 75% 30.28 in 10.0 mi NNW 3.5 mph - N/A   Clear
6:53 AM 21.0 °F 16.2 °F 15.1 °F 78% 30.30 in 10.0 mi NW 3.5 mph - N/A   Clear
7:53 AM 19.9 °F 12.1 °F 14.0 °F 78% 30.31 in 10.0 mi WNW 5.8 mph - N/A   Scattered Clouds
8:53 AM 23.0 °F 14.7 °F 17.1 °F 78% 30.32 in 10.0 mi NW 6.9 mph - N/A   Overcast
9:53 AM 25.0 °F 16.3 °F 19.0 °F 78% 30.35 in 10.0 mi NW 8.1 mph - N/A   Overcast
10:53 AM 26.1 °F 16.8 °F 19.0 °F 75% 30.35 in 10.0 mi WNW 9.2 mph - N/A   Overcast
11:53 AM 27.0 °F 18.7 °F 19.0 °F 72% 30.35 in 10.0 mi WNW 8.1 mph - N/A   Overcast
12:53 PM 28.0 °F 18.1 °F 19.0 °F 69% 30.32 in 10.0 mi West 11.5 mph - N/A   Overcast
1:53 PM 28.9 °F 21.9 °F 19.0 °F 67% 30.31 in 10.0 mi West 6.9 mph - N/A   Overcast
2:53 PM 30.0 °F 22.4 °F 19.9 °F 66% 30.32 in 10.0 mi WNW 8.1 mph - N/A   Overcast
3:53 PM 30.0 °F 21.7 °F 21.0 °F 69% 30.33 in 10.0 mi WNW 9.2 mph - N/A   Overcast
4:53 PM 30.0 °F 24.1 °F 21.0 °F 69% 30.34 in 10.0 mi WNW 5.8 mph - N/A   Overcast
5:53 PM 28.9 °F - 19.9 °F 69% 30.34 in 10.0 mi Calm Calm - N/A   Overcast
6:53 PM 27.0 °F 20.5 °F 19.9 °F 75% 30.34 in 10.0 mi West 5.8 mph - N/A   Mostly Cloudy
7:53 PM 26.1 °F 17.6 °F 19.9 °F 78% 30.35 in 10.0 mi West 8.1 mph - N/A   Clear
8:53 PM 21.9 °F 17.2 °F 18.0 °F 85% 30.35 in 9.0 mi West 3.5 mph - N/A   Clear
9:53 PM 23.0 °F 14.7 °F 19.0 °F 85% 30.35 in 9.0 mi West 6.9 mph - N/A   Clear
10:53 PM 23.0 °F - 19.0 °F 85% 30.35 in 9.0 mi Calm Calm - N/A   Clear
11:53 PM 21.0 °F - 18.0 °F 88% 30.34 in 7.0 mi Calm Calm - N/A   Clear